Change the Weather History Date:

Saturday, January 4, 2014

  Actual Average Record
Temperature  
Mean Temperature 34 °F -  
Max Temperature 43 °F 44 °F 61 °F (1984)
Min Temperature 24 °F 32 °F 16 °F (1979)
Degree Days  
Heating Degree Days 32    
Moisture  
Dew Point 27 °F    
Average Humidity 97    
Maximum Humidity 100    
Minimum Humidity 70    
Precipitation  
Precipitation 0.00 in - - ()
Sea Level Pressure  
Sea Level Pressure 30.43 in    
Wind  
Wind Speed 2 mph (SSE)    
Max Wind Speed 7 mph    
Max Gust Speed -    
Visibility 5 miles    
Events Fog    
Averages and records for this station are not official NWS values.
T = Trace of Precipitation, MM = Missing Value Source: NWS Daily Summary

Daily Weather History Graph

Daily Weather History Graph

Search for Another Location

Airport or City:

Trip Planner

Search our weather history database for the weather conditions in past years. The results will help you decide how hot, cold, wet, or windy it might be!

Date:

Astronomy

Jan. 04, 2014 Rise Set
Actual Time 7:56 AM PST 4:34 PM PST
Civil Twilight 7:20 AM PST 5:09 PM PST
Nautical Twilight 6:42 AM PST 5:47 PM PST
Astronomical Twilight 6:05 AM PST 6:24 PM PST
Moon 9:48 AM PST (1/4) 9:19 PM PST (1/4)
Length of Visible Light 9h 48m
Length of Day
8h 38m
Waxing Crescent, 16% of the Moon is Illuminated
Jan 4
Waxing Crescent
Jan 7
First Quarter
Jan 15
Full
Jan 23
Last Quarter
Jan 30
New

Hourly Weather History & Observations

Time (PST) Temp. Windchill Dew Point Humidity Pressure Visibility Wind Dir Wind Speed Gust Speed Precip Events Conditions
12:03 AM 24.8 °F - 24.8 °F 100% 30.37 in 0.5 mi SSE 2.3 mph - N/A Fog Light Freezing Fog
12:13 AM 26.6 °F 22.6 °F 26.6 °F 100% 30.37 in 0.5 mi South 3.5 mph - N/A Fog Light Freezing Fog
12:23 AM 26.6 °F 21.2 °F 26.6 °F 100% 30.37 in 1.0 mi South 4.6 mph - N/A   Clear
12:28 AM 24.8 °F - 24.8 °F 100% 30.37 in 4.0 mi SSW 2.3 mph - N/A   Clear
12:58 AM 25.3 °F - 25.0 °F 99% 30.39 in 10.0 mi Calm Calm - N/A   Clear
1:18 AM 24.8 °F - 24.8 °F 100% 30.37 in 2.5 mi SE 2.3 mph - N/A   Clear
1:23 AM 26.6 °F - 26.6 °F 100% 30.37 in 2.0 mi ESE 2.3 mph - N/A   Clear
1:28 AM 26.6 °F - 26.6 °F 100% 30.37 in 4.0 mi ESE 1.2 mph - N/A   Clear
1:58 AM 26.1 °F - 25.9 °F 99% 30.40 in 7.0 mi Calm Calm - N/A   Clear
2:23 AM 24.8 °F - 24.8 °F 100% 30.39 in 0.8 mi ESE 2.3 mph - N/A   Clear
2:28 AM 24.8 °F - 24.8 °F 100% 30.39 in 0.5 mi SE 1.2 mph - N/A Fog Light Freezing Fog
2:38 AM 24.8 °F - 24.8 °F 100% 30.40 in 0.5 mi Calm Calm - N/A Fog Light Freezing Fog
2:43 AM 26.6 °F - 24.8 °F 93% 30.40 in 0.8 mi Calm Calm - N/A   Clear
2:48 AM 26.6 °F - 24.8 °F 93% 30.40 in 0.5 mi Calm Calm - N/A Fog Light Freezing Fog
2:53 AM 24.8 °F - 24.8 °F 100% 30.40 in 0.5 mi SSE 1.2 mph - N/A Fog Light Freezing Fog
2:58 AM 24.8 °F - 24.8 °F 100% 30.42 in 0.5 mi SSE 2.3 mph - N/A Fog Light Freezing Fog
3:03 AM 26.6 °F - 26.6 °F 100% 30.41 in 0.5 mi SSE 2.3 mph - N/A Fog Light Freezing Fog
3:08 AM 26.6 °F - 26.6 °F 100% 30.41 in 0.8 mi SSE 2.3 mph - N/A   Clear
3:13 AM 26.6 °F 22.6 °F 26.6 °F 100% 30.40 in 1.2 mi South 3.5 mph - N/A   Clear
3:18 AM 26.6 °F - 26.6 °F 100% 30.41 in 2.0 mi South 2.3 mph - N/A   Clear
3:23 AM 26.6 °F 22.6 °F 24.8 °F 93% 30.41 in 1.2 mi South 3.5 mph - N/A   Clear
3:28 AM 24.8 °F 19.1 °F 24.8 °F 100% 30.41 in 1.5 mi South 4.6 mph - N/A   Clear
3:33 AM 24.8 °F 20.5 °F 23.0 °F 93% 30.41 in 8.0 mi SSE 3.5 mph - N/A   Clear
3:58 AM 25.0 °F - 24.6 °F 99% 30.43 in 9.0 mi ENE 2.3 mph - N/A   Clear
4:58 AM 25.5 °F - 25.2 °F 99% 30.45 in 10.0 mi ESE 2.3 mph - N/A   Overcast
5:58 AM 25.0 °F - 24.8 °F 99% 30.45 in 10.0 mi Calm Calm - N/A   Mostly Cloudy
6:58 AM 24.1 °F - 23.7 °F 99% 30.46 in 9.0 mi Calm Calm - N/A   Clear
7:58 AM 24.3 °F - 24.1 °F 99% 30.46 in 7.0 mi Calm Calm - N/A   Clear
8:58 AM 25.2 °F - 25.0 °F 99% 30.48 in 10.0 mi Calm Calm - N/A   Clear
9:58 AM 30.4 °F - 30.4 °F 100% 30.49 in 10.0 mi SSE 2.3 mph - N/A   Clear
10:58 AM 36.1 °F - 35.8 °F 99% 30.48 in 10.0 mi Calm Calm - N/A   Clear
11:58 AM 39.7 °F - 36.0 °F 86% 30.48 in 10.0 mi NNW 2.3 mph - N/A   Clear
12:58 PM 43.0 °F - 36.9 °F 79% 30.45 in 10.0 mi Variable 2.3 mph - N/A   Clear
1:58 PM 43.9 °F 40.5 °F 34.5 °F 70% 30.44 in 10.0 mi NNE 5.8 mph - N/A   Clear
2:58 PM 43.9 °F 39.9 °F 34.7 °F 70% 30.45 in 10.0 mi NNE 6.9 mph - N/A   Clear
3:58 PM 41.9 °F 39.0 °F 35.4 °F 78% 30.45 in 10.0 mi NNE 4.6 mph - N/A   Clear
4:58 PM 38.3 °F - 34.7 °F 87% 30.45 in 10.0 mi NE 2.3 mph - N/A   Clear
5:58 PM 37.0 °F - 34.3 °F 90% 30.43 in 10.0 mi NNE 1.2 mph - N/A   Clear
6:58 PM 28.0 °F - 27.9 °F 99% 30.46 in 10.0 mi South 2.3 mph - N/A   Clear
7:58 PM 27.7 °F - 27.3 °F 99% 30.47 in 8.0 mi South 2.3 mph - N/A   Clear
8:58 PM 27.3 °F - 27.0 °F 99% 30.47 in 10.0 mi South 1.2 mph - N/A   Clear
9:23 PM 26.6 °F - 26.6 °F 100% 30.45 in 2.5 mi South 2.3 mph - N/A   Clear
9:28 PM 26.6 °F - 26.6 °F 100% 30.45 in 1.5 mi South 1.2 mph - N/A   Clear
9:33 PM 26.6 °F - 26.6 °F 100% 30.45 in 2.5 mi South 2.3 mph - N/A   Clear
9:38 PM 26.6 °F 22.6 °F 26.6 °F 100% 30.44 in 3.0 mi South 3.5 mph - N/A   Clear
9:43 PM 26.6 °F 22.6 °F 26.6 °F 100% 30.44 in 1.5 mi South 3.5 mph - N/A   Clear
9:48 PM 26.6 °F - 26.6 °F 100% 30.45 in 1.8 mi South 2.3 mph - N/A   Clear
9:53 PM 26.6 °F - 26.6 °F 100% 30.45 in 4.0 mi ESE 1.2 mph - N/A   Clear
9:58 PM 26.4 °F - 26.2 °F 99% 30.47 in 8.0 mi South 2.3 mph - N/A   Clear
10:58 PM 24.3 °F - 23.9 °F 99% 30.48 in 9.0 mi Calm Calm - N/A   Clear
11:18 PM 24.8 °F - 24.8 °F 100% 30.45 in 1.8 mi SSW 1.2 mph - N/A   Clear
11:23 PM 24.8 °F - 24.8 °F 100% 30.45 in 1.0 mi SSW 1.2 mph - N/A   Clear
11:28 PM 24.8 °F - 24.8 °F 100% 30.45 in 0.8 mi South 2.3 mph - N/A   Clear
11:33 PM 24.8 °F - 24.8 °F 100% 30.45 in 1.0 mi South 2.3 mph - N/A   Clear
11:38 PM 24.8 °F - 24.8 °F 100% 30.45 in 1.2 mi South 2.3 mph - N/A   Clear
11:43 PM 24.8 °F - 24.8 °F 100% 30.45 in 3.0 mi Calm Calm - N/A   Clear
11:58 PM 24.8 °F 20.5 °F 24.4 °F 99% 30.48 in 8.0 mi SSW 3.5 mph - N/A   Clear